Hourly Weather Russkiy Aktash

Today, 22 April, Thursday

Time Temperature Precipitation Wind Pressure Humidity
00:00 +1°C° 0.5 mm 8 mps 759 mmHg 85%
01:00 +2°C° 1.2 mm 7 mps 759 mmHg 88%
02:00 0°C° 1.2 mm 7 mps 759 mmHg 92%
03:00 0°C° 0 mm 7 mps 759 mmHg 96%
04:00 +1°C° 0.5 mm 6 mps 760 mmHg 96%
05:00 +1°C° 0.5 mm 6 mps 760 mmHg 96%
06:00 +1°C° 0.5 mm 6 mps 760 mmHg 96%
07:00 +2°C° 0.1 mm 6 mps 760 mmHg 93%
08:00 +3°C° 0.1 mm 6 mps 760 mmHg 89%
09:00 +3°C° 0.1 mm 6 mps 760 mmHg 86%
10:00 +4°C° 0 mm 6 mps 760 mmHg 82%
11:00 +4°C° 0 mm 6 mps 760 mmHg 77%
12:00 +5°C° 0 mm 6 mps 760 mmHg 73%
13:00 +5°C° 0 mm 6 mps 760 mmHg 73%
14:00 +7°C° 0 mm 6 mps 760 mmHg 73%
15:00 +7°C° 0 mm 6 mps 760 mmHg 73%
16:00 +7°C° 0 mm 6 mps 760 mmHg 74%
17:00 +7°C° 0 mm 5 mps 760 mmHg 75%
18:00 +6°C° 0 mm 5 mps 760 mmHg 76%
19:00 +6°C° 0 mm 5 mps 760 mmHg 77%
20:00 +5°C° 0 mm 5 mps 760 mmHg 79%
21:00 +3°C° 0 mm 5 mps 760 mmHg 80%
22:00 +3°C° 0 mm 5 mps 760 mmHg 84%
23:00 +2°C° 0 mm 5 mps 760 mmHg 88%

Tomorrow, 23 April, Friday

Time Temperature Precipitation Wind Pressure Humidity
00:00 +1°C° 0 mm 5 mps 760 mmHg 93%
01:00 +3°C° 0 mm 4 mps 761 mmHg 91%
02:00 +3°C° 0 mm 4 mps 761 mmHg 89%
03:00 +3°C° 0 mm 4 mps 761 mmHg 87%
04:00 +4°C° 0 mm 3 mps 761 mmHg 87%
05:00 +4°C° 0 mm 3 mps 761 mmHg 87%
06:00 +4°C° 0 mm 3 mps 761 mmHg 87%
07:00 +5°C° 0 mm 3 mps 761 mmHg 81%
08:00 +8°C° 0 mm 3 mps 761 mmHg 76%
09:00 +9°C° 0 mm 3 mps 761 mmHg 70%
10:00 +10°C° 0 mm 3 mps 761 mmHg 66%
11:00 +11°C° 0 mm 3 mps 760 mmHg 62%
12:00 +12°C° 0 mm 3 mps 760 mmHg 59%
13:00 +13°C° 0 mm 3 mps 760 mmHg 57%
14:00 +13°C° 0 mm 3 mps 759 mmHg 56%
15:00 +14°C° 0 mm 4 mps 759 mmHg 54%
16:00 +13°C° 0 mm 4 mps 759 mmHg 56%
17:00 +13°C° 0 mm 4 mps 758 mmHg 57%
18:00 +12°C° 0 mm 4 mps 758 mmHg 58%
19:00 +11°C° 0 mm 4 mps 758 mmHg 63%
20:00 +10°C° 0 mm 3 mps 758 mmHg 68%
21:00 +9°C° 0 mm 3 mps 757 mmHg 72%
22:00 +8°C° 0 mm 4 mps 757 mmHg 77%
23:00 +7°C° 0 mm 4 mps 756 mmHg 81%

Day after tomorrow, 24 April, Saturday

Time Temperature Precipitation Wind Pressure Humidity
00:00 +7°C° 0 mm 4 mps 756 mmHg 85%
01:00 +7°C° 0.3 mm 4 mps 756 mmHg 87%
02:00 +6°C° 0.3 mm 4 mps 755 mmHg 89%
03:00 +6°C° 0.3 mm 4 mps 755 mmHg 90%
04:00 +6°C° 0.4 mm 4 mps 754 mmHg 91%
05:00 +6°C° 0.4 mm 4 mps 754 mmHg 91%
06:00 +6°C° 0.4 mm 5 mps 753 mmHg 91%
07:00 +6°C° 0.1 mm 5 mps 753 mmHg 90%
08:00 +6°C° 0.1 mm 5 mps 752 mmHg 89%
09:00 +7°C° 0.1 mm 5 mps 752 mmHg 88%
10:00 +6°C° 0.3 mm 4 mps 752 mmHg 88%
11:00 +6°C° 0.3 mm 4 mps 751 mmHg 89%
12:00 +6°C° 0.3 mm 4 mps 751 mmHg 89%
13:00 +6°C° 0.5 mm 4 mps 751 mmHg 90%
14:00 +7°C° 0.5 mm 3 mps 750 mmHg 90%
15:00 +7°C° 0.5 mm 3 mps 750 mmHg 90%
16:00 +5°C° 0.1 mm 3 mps 750 mmHg 91%
17:00 +6°C° 0.1 mm 2 mps 750 mmHg 91%
18:00 +6°C° 0.1 mm 2 mps 749 mmHg 91%
19:00 +6°C° 0.1 mm 2 mps 749 mmHg 92%
20:00 +6°C° 0.1 mm 2 mps 749 mmHg 93%
21:00 +6°C° 0.1 mm 2 mps 749 mmHg 94%
22:00 +6°C° 0 mm 2 mps 749 mmHg 94%
23:00 +6°C° 0 mm 2 mps 748 mmHg 95%

25 April, Sunday

Time Temperature Precipitation Wind Pressure Humidity
00:00 +5°C° 0 mm 2 mps 748 mmHg 95%
01:00 +5°C° 0.1 mm 3 mps 748 mmHg 93%
02:00 +5°C° 0.1 mm 4 mps 747 mmHg 92%
03:00 +6°C° 0.1 mm 5 mps 747 mmHg 90%
04:00 +6°C° 0.2 mm 5 mps 746 mmHg 90%
05:00 +5°C° 0.2 mm 6 mps 746 mmHg 90%
06:00 +5°C° 0.2 mm 6 mps 746 mmHg 91%
07:00 +5°C° 0.3 mm 7 mps 746 mmHg 87%
08:00 +5°C° 0.3 mm 8 mps 747 mmHg 83%
09:00 +5°C° 0.3 mm 8 mps 747 mmHg 79%
10:00 +6°C° 0.1 mm 8 mps 748 mmHg 72%
11:00 +7°C° 0.1 mm 8 mps 748 mmHg 64%
12:00 +8°C° 0.1 mm 7 mps 749 mmHg 56%
13:00 +9°C° 0.1 mm 7 mps 749 mmHg 54%
14:00 +9°C° 0.1 mm 7 mps 749 mmHg 51%
15:00 +10°C° 0.1 mm 7 mps 750 mmHg 49%
16:00 +9°C° 0.1 mm 6 mps 750 mmHg 56%
17:00 +8°C° 0.1 mm 5 mps 750 mmHg 62%
18:00 +7°C° 0.1 mm 4 mps 751 mmHg 69%
19:00 +6°C° 0 mm 4 mps 751 mmHg 73%
20:00 +5°C° 0 mm 4 mps 751 mmHg 77%
21:00 +5°C° 0 mm 3 mps 752 mmHg 82%
22:00 +4°C° 0 mm 3 mps 752 mmHg 83%
23:00 +4°C° 0 mm 3 mps 752 mmHg 84%

26 April, Monday

Time Temperature Precipitation Wind Pressure Humidity
00:00 +3°C° 0 mm 3 mps 752 mmHg 85%
01:00 +3°C° 0 mm 3 mps 752 mmHg 86%
02:00 +3°C° 0 mm 3 mps 752 mmHg 88%
03:00 +3°C° 0 mm 2 mps 752 mmHg 89%
04:00 +3°C° 0 mm 3 mps 753 mmHg 88%
05:00 +3°C° 0 mm 3 mps 753 mmHg 86%
06:00 +4°C° 0 mm 3 mps 753 mmHg 85%
07:00 +5°C° 0 mm 4 mps 753 mmHg 74%
08:00 +6°C° 0 mm 5 mps 753 mmHg 63%
09:00 +8°C° 0 mm 5 mps 753 mmHg 51%
10:00 +8°C° 0 mm 5 mps 753 mmHg 47%
11:00 +9°C° 0 mm 6 mps 753 mmHg 42%
12:00 +9°C° 0 mm 6 mps 753 mmHg 38%
13:00 +10°C° 0 mm 5 mps 753 mmHg 38%
14:00 +10°C° 0 mm 5 mps 753 mmHg 37%
15:00 +10°C° 0 mm 5 mps 753 mmHg 37%
16:00 +11°C° 0 mm 4 mps 753 mmHg 42%
17:00 +10°C° 0 mm 3 mps 753 mmHg 46%
18:00 +9°C° 0 mm 2 mps 753 mmHg 51%
19:00 +9°C° 0 mm 2 mps 753 mmHg 52%
20:00 +8°C° 0 mm 2 mps 753 mmHg 53%
21:00 +7°C° 0 mm 2 mps 753 mmHg 54%
22:00 +7°C° 0 mm 2 mps 753 mmHg 56%
23:00 +8°C° 0 mm 1 mps 752 mmHg 57%

27 April, Tuesday

Time Temperature Precipitation Wind Pressure Humidity
00:00 +7°C° 0 mm 1 mps 752 mmHg 58%
01:00 +7°C° 0 mm 1 mps 752 mmHg 59%
02:00 +7°C° 0 mm 1 mps 751 mmHg 59%
03:00 +6°C° 0 mm 1 mps 751 mmHg 59%
04:00 +7°C° 0 mm 1 mps 751 mmHg 59%
05:00 +7°C° 0 mm 1 mps 750 mmHg 59%
06:00 +8°C° 0 mm 1 mps 750 mmHg 59%
07:00 +8°C° 0 mm 2 mps 750 mmHg 53%
08:00 +9°C° 0 mm 3 mps 749 mmHg 48%
09:00 +11°C° 0 mm 4 mps 748 mmHg 42%
10:00 +12°C° 0 mm 4 mps 748 mmHg 39%
11:00 +12°C° 0 mm 4 mps 747 mmHg 36%
12:00 +13°C° 0 mm 4 mps 747 mmHg 33%
13:00 +13°C° 0 mm 4 mps 746 mmHg 34%
14:00 +14°C° 0 mm 4 mps 745 mmHg 35%
15:00 +14°C° 0 mm 4 mps 745 mmHg 35%
16:00 +13°C° 0.1 mm 5 mps 745 mmHg 45%
17:00 +10°C° 0.1 mm 5 mps 744 mmHg 54%
18:00 +9°C° 0.1 mm 6 mps 744 mmHg 63%
19:00 +8°C° 0.1 mm 5 mps 744 mmHg 66%
20:00 +7°C° 0.1 mm 5 mps 745 mmHg 69%
21:00 +6°C° 0.1 mm 4 mps 745 mmHg 71%
22:00 +5°C° 0 mm 4 mps 745 mmHg 72%
23:00 +5°C° 0 mm 4 mps 744 mmHg 73%
Show more